Weather in Kalinino

Russia / Amur Oblast     49°23′21″N   129°17′02″E
temp.,
°C
wind,
m/s
gust,
m/s
humid.,
%
clouds,
%
prec.,
mm/h
press.,
hPa
HPBL,
m
15 may, sat
sat1500:00+11wsw1298100 11.1 100071
03:00+11wnw4798100 18.6 998290
06:00+10wnw599181 0.4 999532
09:00+13w797099 0.4 9991078
12:00+16w913485 0.4 9972343
15:00+16wnw10144647 0.7 9982648
18:00+14w714556 0.2 9991870
21:00+12w816535 0.2 1000611
16 may, sun
sun1600:00+11w715585 0.0 1001438
03:00+8w413681 0.0 1002311
06:00+8w411680 0.0 1003347
09:00+14wnw610480 0.0 1002976
12:00+18wnw710343 0.0 10012205
15:00+21wnw610265 0.0 10002854
18:00+20wnw23380 0.0 999151
21:00+14s33460 0.0 99915
17 may, mon
mon1700:00+12s33490 0.0 99941
03:00+10wsw37620 0.0 99896
06:00+10wsw310620 0.0 999202
09:00+17wnw68500 0.0 999673
12:00+21wnw59415 0.0 9992366
15:00+22nw693430 0.0 9992613
18:00+20nnw583626 0.0 999422
21:00+13ne35465 0.0 100163
18 may, tue
tue1800:00+10ene354823 0.0 100088
03:00+11ene3748100 0.0 999147
06:00+10e3558100 0.0 997134
09:00+16w3456100 0.0 997467
12:00+20wnw6644100 0.0 9961126
15:00+13nw5974100 0.6 999464
18:00+17nw4752100 0.0 9991183
21:00+12ne22645 0.0 100211
19 may, wed
wed1900:00+9nne35775 0.0 100571
03:00+7nnw11796 0.0 100712
06:00+8n117529 0.0 100957
09:00+14ssw12481 0.0 1009604
12:00+18wnw342663 0.0 10092312
15:00+19wnw232596 0.0 10082083
18:00+19ene2235100 0.0 100796
21:00+13ese48425 0.0 1007110